星链-37122(STARLINK-37122)

导读

STARLINK-37122(NORAD编号68678)是SpaceX星链星座的第二代卫星,属于星链全球互联网星座组网的组成部分。该卫星运行在近地轨道,采用增强型相控阵天线技术,支持Ku/Ka/E波段通信,标配激光星间链路,通信容量超100Gbps,可提供百兆以上用户终端速度,延迟低于20毫秒。依托氪离子推进系统,具备较强的轨道机动与主动避碰能力,设计寿命5-7年,为全球范围内尤其是偏远地区提供低延迟宽带互联网接入服务,是星链第二代大规模组网的现役卫星之一。

Basic Information
目录编号:
68678
目录名称:
STARLINK-37122
国际标识:
2026-077S
轨道中心:
EARTH
卫星名称:
星链-37122
卫星全名:
星链-37122(STARLINK-37122)
卫星状态:
在轨 (已飞行146 天)
发射日期:
2026-04-11 UTC
国别 :
美国 (US)
星等 :
--
Orbit Information
数据来源 国际轨道数据
星历时间: 2026-09-03T12:49:44+0800
1天前
查看轨道信息
半长轴: 6843.541km
偏心率: 0.000276
轨道倾角: 97.283°
近地点辐角 67.615°
升交点赤经 116.370°
平近点角 292.538°
近地点: 463.515km
远地点: 467.293km
周期: 93.903分钟
每日圈数: 15.334918
Detailed Information
固有亮度:
5
最大亮度:
2.5
卫星平台:
Starlink V1.0
覆盖范围:
全球
运营商:
太空探索技术公司
运营商所在国:
美国
制造商(研发单位):
太空探索技术公司
制造商所在国:
美国
使用方式:
暂无
Satellite Introduction
Starlink 计划是 SpaceX 推出的全球卫星互联网项目,通过发射低轨道卫星,为全球尤其是偏远地区提供高速、低延迟的互联网服务。自 2019 年起,Starlink 已部署数千颗卫星,旨在缩小全球数字鸿沟,推动互联网普及。该项目还为军事、航空等行业提供通信支持,带来广泛经济效益。
2D Orbit Map
3D Orbit Map
Orbit Altitude Analysis Chart
Orbit Inclination Analysis Chart
Orbit Comprehensive Analysis Chart
View Comprehensive Chart
Conjunction Data List
Event ID Objects TCA Miss Dist (km) Collision Risk Probability Collision Risk Index (CRI) Action
CDM_260906-141905-249306-867821
2026-09-06T
14:19:27+0000
1.481 km
极远距离
6.966658E-6 低风险 0.52
CDM_260828-043506-238206-867821
HAWK-11A (62382)
2026-08-28T
04:35:46+0000
1.624 km
极远距离
4.97649E-6 低风险 0.49
CDM_260905-154604-974006-867821
2026-09-05T
15:46:15+0000
2.318 km
极远距离
1.571694E-6 低风险 0.39
CDM_260831-102505-283506-867821
2026-08-31T
10:25:44+0000
2.724 km
极远距离
1.49747E-6 低风险 0.39
CDM_260904-082704-867206-867821
2026-09-04T
08:27:16+0000
2.673 km
极远距离
1.475003E-6 低风险 0.38
CDM_260905-105205-198506-867821
2026-09-05T
10:52:41+0000
2.872 km
极远距离
1.412224E-6 低风险 0.38